| time (UTC) | temp C | wind direction | speed KPH | gust KPH | rain 1hr cm | rain 24hr cm | rain mn cm | humidity % | barometer mb |
| 20260906222402 | 33 | 248 | 0.0 | 1.6 | 0.00 | 0.00 | 0.00 | 36 | 1010.5 |
| 20260906221203 | 33 | 299 | 0.0 | 1.6 | 0.00 | 0.00 | 0.00 | 34 | 1010.5 |
| 20260906220004 | 33 | 0 | 0.0 | 0.0 | 0.00 | 0.00 | 0.00 | 33 | 1010.6 |
| 20260906214802 | 33 | 0 | 0.0 | 0.0 | 0.00 | 0.00 | 0.00 | 33 | 1010.9 |
| 20260906213603 | 33 | 0 | 0.0 | 0.0 | 0.00 | 0.00 | 0.00 | 35 | 1011.1 |
| 20260906212402 | 33 | 0 | 0.0 | 0.0 | 0.00 | 0.00 | 0.00 | 34 | 1011.3 |
| 20260906211203 | 32 | 218 | 0.0 | 8.0 | 0.00 | 0.00 | 0.00 | 36 | 1011.5 |
| 20260906210003 | 32 | 219 | 0.0 | 6.4 | 0.00 | 0.00 | 0.00 | 37 | 1011.6 |
| 20260906204802 | 31 | 284 | 0.0 | 1.6 | 0.00 | 0.00 | 0.00 | 39 | 1011.9 |
| 20260906202403 | 31 | 245 | 0.0 | 12.9 | 0.00 | 0.00 | 0.00 | 41 | 1012.1 |
| 20260906200003 | 30 | 108 | 0.0 | 1.6 | 0.00 | 0.00 | 0.00 | 41 | 1012.6 |
| 20260906193603 | 28 | 125 | 1.6 | 8.0 | 0.00 | 0.00 | 0.00 | 45 | 1012.9 |
| 20260906192403 | 28 | 286 | 1.6 | 9.7 | 0.00 | 0.00 | 0.00 | 47 | 1013.2 |
| 20260906190003 | 27 | 56 | 0.0 | 6.4 | 0.00 | 0.00 | 0.00 | 50 | 1013.7 |
| 20260906184803 | 27 | 16 | 1.6 | 11.3 | 0.00 | 0.00 | 0.00 | 50 | 1013.8 |
| 20260906183602 | 27 | 294 | 0.0 | 9.7 | 0.00 | 0.00 | 0.00 | 52 | 1014.0 |
| 20260906182403 | 27 | 289 | 1.6 | 6.4 | 0.00 | 0.00 | 0.00 | 52 | 1014.3 |
| 20260906181203 | 26 | 259 | 3.2 | 8.0 | 0.00 | 0.00 | 0.00 | 54 | 1014.4 |
| 20260906174802 | 26 | 282 | 0.0 | 6.4 | 0.00 | 0.00 | 0.00 | 55 | 1014.8 |
| 20260906172403 | 25 | 97 | 0.0 | 6.4 | 0.00 | 0.00 | 0.00 | 57 | 1015.1 |
| 20260906170003 | 24 | 66 | 1.6 | 6.4 | 0.00 | 0.00 | 0.00 | 60 | 1015.5 |
| 20260906164802 | 23 | 85 | 0.0 | 4.8 | 0.00 | 0.00 | 0.00 | 61 | 1015.6 |
| 20260906163603 | 23 | 83 | 1.6 | 9.7 | 0.00 | 0.00 | 0.00 | 62 | 1015.8 |
| 20260906162403 | 23 | 64 | 1.6 | 6.4 | 0.00 | 0.00 | 0.00 | 61 | 1015.7 |
| 20260906161203 | 22 | 80 | 1.6 | 8.0 | 0.00 | 0.00 | 0.00 | 61 | 1015.8 |
| 20260906160003 | 22 | 77 | 1.6 | 6.4 | 0.00 | 0.00 | 0.00 | 59 | 1016.0 |
| 20260906154803 | 22 | 77 | 1.6 | 6.4 | 0.00 | 0.00 | 0.00 | 59 | 1016.1 |
| 20260906153603 | 21 | 91 | 4.8 | 8.0 | 0.00 | 0.00 | 0.00 | 59 | 1016.1 |
| 20260906152403 | 21 | 315 | 0.0 | 6.4 | 0.00 | 0.00 | 0.00 | 63 | 1016.1 |
| 20260906151203 | 20 | 314 | 4.8 | 8.0 | 0.00 | 0.00 | 0.00 | 64 | 1016.2 |
| 20260906150003 | 19 | 307 | 3.2 | 6.4 | 0.00 | 0.00 | 0.00 | 65 | 1016.3 |
| 20260906144802 | 18 | 0 | 0.0 | 0.0 | 0.00 | 0.00 | 0.00 | 67 | 1016.6 |
| 20260906143603 | 16 | 0 | 0.0 | 0.0 | 0.00 | 0.00 | 0.00 | 74 | 1016.7 |
| 20260906142403 | 15 | 0 | 0.0 | 0.0 | 0.00 | 0.00 | 0.00 | 77 | 1016.3 |
| 20260906141203 | 13 | 0 | 0.0 | 0.0 | 0.00 | 0.00 | 0.00 | 81 | 1016.4 |
| 20260906140003 | 12 | 0 | 0.0 | 0.0 | 0.00 | 0.00 | 0.00 | 84 | 1016.3 |
| 20260906134803 | 12 | 0 | 0.0 | 0.0 | 0.00 | 0.00 | 0.00 | 86 | 1016.3 |
| 20260906132403 | 10 | 305 | 0.0 | 1.6 | 0.00 | 0.00 | 0.00 | 90 | 1016.4 |
| 20260906131202 | 10 | 0 | 0.0 | 0.0 | 0.00 | 0.00 | 0.00 | 90 | 1016.4 |
| 20260906130003 | 9 | 0 | 0.0 | 0.0 | 0.00 | 0.00 | 0.00 | 90 | 1016.6 |
| 20260906124803 | 9 | 0 | 0.0 | 0.0 | 0.00 | 0.00 | 0.00 | 90 | 1016.3 |
| 20260906123603 | 9 | 0 | 0.0 | 0.0 | 0.00 | 0.00 | 0.00 | 89 | 1016.3 |
| 20260906122403 | 10 | 0 | 0.0 | 0.0 | 0.00 | 0.00 | 0.00 | 89 | 1016.1 |
| 20260906120003 | 10 | 0 | 0.0 | 0.0 | 0.00 | 0.00 | 0.00 | 88 | 1015.8 |
| 20260906114803 | 10 | 0 | 0.0 | 0.0 | 0.00 | 0.00 | 0.00 | 87 | 1015.6 |
| 20260906112403 | 10 | 0 | 0.0 | 0.0 | 0.00 | 0.00 | 0.00 | 87 | 1015.3 |
| 20260906111203 | 10 | 0 | 0.0 | 0.0 | 0.00 | 0.00 | 0.00 | 86 | 1015.3 |
| 20260906110004 | 11 | 0 | 0.0 | 0.0 | 0.00 | 0.00 | 0.00 | 85 | 1015.2 |
| 20260906104803 | 11 | 0 | 0.0 | 0.0 | 0.00 | 0.00 | 0.00 | 85 | 1015.1 |
| 20260906103603 | 11 | 0 | 0.0 | 0.0 | 0.00 | 0.00 | 0.00 | 84 | 1015.0 |
| 20260906102404 | 11 | 0 | 0.0 | 0.0 | 0.00 | 0.00 | 0.00 | 84 | 1015.3 |
| 20260906101203 | 11 | 0 | 0.0 | 0.0 | 0.00 | 0.00 | 0.00 | 83 | 1015.1 |
| 20260906100004 | 11 | 0 | 0.0 | 0.0 | 0.00 | 0.00 | 0.00 | 83 | 1015.0 |
| 20260906094803 | 11 | 0 | 0.0 | 0.0 | 0.00 | 0.00 | 0.00 | 83 | 1015.0 |
| 20260906093603 | 11 | 0 | 0.0 | 0.0 | 0.00 | 0.00 | 0.00 | 82 | 1015.0 |
| 20260906092403 | 12 | 0 | 0.0 | 0.0 | 0.00 | 0.00 | 0.00 | 81 | 1015.0 |
| 20260906091203 | 12 | 0 | 0.0 | 0.0 | 0.00 | 0.00 | 0.00 | 80 | 1014.9 |
| 20260906084803 | 12 | 0 | 0.0 | 0.0 | 0.00 | 0.00 | 0.00 | 82 | 1015.2 |
| 20260906083603 | 12 | 0 | 0.0 | 0.0 | 0.00 | 0.00 | 0.00 | 80 | 1015.4 |
| 20260906081204 | 13 | 0 | 0.0 | 0.0 | 0.00 | 0.00 | 0.00 | 78 | 1015.5 |
| 20260906080004 | 13 | 0 | 0.0 | 0.0 | 0.00 | 0.00 | 0.00 | 77 | 1015.6 |
| 20260906074803 | 13 | 0 | 0.0 | 0.0 | 0.00 | 0.00 | 0.00 | 77 | 1015.7 |
| 20260906072404 | 13 | 0 | 0.0 | 0.0 | 0.00 | 0.00 | 0.00 | 76 | 1015.7 |
| 20260906065955 | 14 | 0 | 0.0 | 0.0 | 0.00 | 0.00 | 0.00 | 76 | 1015.7 |
| 20260906064755 | 14 | 0 | 0.0 | 0.0 | 0.00 | 0.00 | 0.00 | 75 | 1015.7 |
| 20260906063555 | 14 | 308 | 0.0 | 3.2 | 0.00 | 0.00 | 0.00 | 75 | 1015.7 |
| 20260906062355 | 14 | 0 | 0.0 | 0.0 | 0.00 | 0.00 | 0.00 | 74 | 1015.9 |
| 20260906061155 | 15 | 0 | 0.0 | 0.0 | 0.00 | 0.00 | 0.00 | 73 | 1015.9 |
| 20260906054755 | 15 | 0 | 0.0 | 0.0 | 0.00 | 0.00 | 0.00 | 71 | 1016.0 |
| 20260906053555 | 15 | 0 | 0.0 | 0.0 | 0.00 | 0.00 | 0.00 | 71 | 1016.1 |
| 20260906052356 | 15 | 0 | 0.0 | 0.0 | 0.00 | 0.00 | 0.00 | 70 | 1016.3 |
| 20260906051155 | 15 | 0 | 0.0 | 0.0 | 0.00 | 0.00 | 0.00 | 69 | 1016.3 |
| 20260906045955 | 16 | 0 | 0.0 | 0.0 | 0.00 | 0.00 | 0.00 | 68 | 1016.1 |
| 20260906044755 | 16 | 0 | 0.0 | 0.0 | 0.00 | 0.00 | 0.00 | 68 | 1016.3 |
| 20260906043555 | 16 | 0 | 0.0 | 0.0 | 0.00 | 0.00 | 0.00 | 68 | 1016.2 |
| 20260906042355 | 16 | 0 | 0.0 | 0.0 | 0.00 | 0.00 | 0.00 | 67 | 1016.2 |
| 20260906041154 | 17 | 0 | 0.0 | 0.0 | 0.00 | 0.00 | 0.00 | 65 | 1016.0 |
| 20260906035955 | 17 | 0 | 0.0 | 0.0 | 0.00 | 0.00 | 0.00 | 66 | 1015.9 |
| 20260906034755 | 17 | 0 | 0.0 | 0.0 | 0.00 | 0.00 | 0.00 | 65 | 1015.8 |
| 20260906033555 | 18 | 0 | 0.0 | 0.0 | 0.00 | 0.00 | 0.00 | 65 | 1015.6 |
| 20260906032355 | 18 | 0 | 0.0 | 0.0 | 0.00 | 0.00 | 0.00 | 64 | 1015.7 |
| 20260906025955 | 19 | 0 | 0.0 | 0.0 | 0.00 | 0.00 | 0.00 | 62 | 1015.7 |
| 20260906024755 | 20 | 0 | 0.0 | 0.0 | 0.00 | 0.00 | 0.00 | 60 | 1015.5 |
| 20260906023555 | 21 | 0 | 0.0 | 0.0 | 0.00 | 0.00 | 0.00 | 57 | 1015.1 |
| 20260906021155 | 22 | 0 | 0.0 | 0.0 | 0.00 | 0.00 | 0.00 | 54 | 1014.9 |
| 20260906015955 | 23 | 0 | 0.0 | 0.0 | 0.00 | 0.00 | 0.00 | 51 | 1015.0 |
| 20260906014755 | 24 | 0 | 0.0 | 0.0 | 0.00 | 0.00 | 0.00 | 48 | 1014.9 |
| 20260906013555 | 25 | 0 | 0.0 | 0.0 | 0.00 | 0.00 | 0.00 | 45 | 1014.9 |
| 20260906012355 | 26 | 0 | 0.0 | 0.0 | 0.00 | 0.00 | 0.00 | 43 | 1014.9 |
| 20260906011155 | 27 | 0 | 0.0 | 0.0 | 0.00 | 0.00 | 0.00 | 41 | 1014.8 |
| 20260906004756 | 29 | 0 | 0.0 | 0.0 | 0.00 | 0.00 | 0.00 | 35 | 1014.9 |
| 20260906003555 | 30 | 0 | 0.0 | 0.0 | 0.00 | 0.00 | 0.00 | 33 | 1014.9 |
| 20260906002355 | 30 | 0 | 0.0 | 0.0 | 0.00 | 0.00 | 0.00 | 34 | 1014.9 |
| 20260906001155 | 30 | 0 | 0.0 | 0.0 | 0.00 | 0.00 | 0.00 | 33 | 1014.9 |
| 20260905234755 | 31 | 336 | 0.0 | 1.6 | 0.00 | 0.00 | 0.00 | 32 | 1015.1 |
| 20260905233555 | 30 | 0 | 0.0 | 0.0 | 0.00 | 0.00 | 0.00 | 30 | 1014.9 |
| 20260905232355 | 30 | 0 | 0.0 | 0.0 | 0.00 | 0.00 | 0.00 | 32 | 1015.0 |
| 20260905231155 | 28 | 121 | 1.6 | 9.7 | 0.00 | 0.00 | 0.00 | 31 | 1014.8 |
| 20260905225956 | 29 | 58 | 0.0 | 1.6 | 0.00 | 0.00 | 0.00 | 33 | 1015.3 |
| 20260905224755 | 29 | 74 | 0.0 | 4.8 | 0.00 | 0.00 | 0.00 | 32 | 1015.2 |
| 20260905223556 | 29 | 85 | 0.0 | 6.4 | 0.00 | 0.00 | 0.00 | 35 | 1015.2 |